Location: Home
(42.5358°N, 72.7383°W)
Time: 09:45:41
(UTC-05:00)

S-56A Canister/Altair - Pass Details

Date: 02 December 2021
Orbit: 634 x 2499 km, 38.9° (Epoch: 22 January)

Event Time Altitude Azimuth Distance (km) Brightness Sun altitude
Rises 03:13:16 0° 268° (W) 4,078 - -41.5°
Reaches altitude 10° 03:16:32 10° 265° (W) 2,838 - -40.9°
Maximum altitude 03:22:50 58° 188° (S) 921 - -39.7°
Exits shadow 03:26:51 14° 112° (ESE) 1,865 10.0 -39.0°
Drops below altitude 10° 03:27:31 10° 109° (ESE) 2,115 10.4 -38.9°
Sets 03:29:38 0° 105° (ESE) 2,957 11.4 -38.5°
